Main page
METAR-TAF:

METAR-TAF

Airports :

Tekamah Municipal Airport

Tekamah, Nebraska, United States

latitude: 41-46-01N, longitude: 096-10-40W, elevation: 1027 ft

Current weather observation

The report was made 16 minutes ago, at 14:54 UTC
Wind 6 mph from the South/Southeast
Temperature 70°F
Humidity 88%
Pressure 30.27 in. Hg
Visibility: 10 miles
Overcast at a height of 900 ft

METAR: KTQE 201454Z AUTO 16005KT 10SM OVC009 21/19 A3027 RMK AO2 SLP242 T02110189 53003

Time: 10:10 (15:10 UTC)


TAF: missing

Weather observations and forecasts of more than 4000 airports (METAR and TAF reports).

The available stations are represented by yellow and red dots on the map.

Hover mouse over dot to see the name of the station.

Then click to see weather observations and forecasts.

To change the map : click on the green buttons with a black cross to zoom in, on the green button with a dash to zoom out, or on the green arrows for adjacent maps.


METAR-TAF: